Vorticity
6 9 8 8 6 6 9 10 11 12 12 10 8 8 8 10 9 8 7 8 7 9 10 10 10 10 9 9 10 11 12 10 10 6 10 4 -1 -9 19 8 23 -1 7
7 6 7 6 6 9 10 10 11 11 9 9 7 7 7 7 8 8 8 9 9 9 8 6 6 7 8 10 11 10 10 12 12 12 6 12 8 -3 6 16 32 -2 5
9 6 6 10 12 13 13 11 10 9 7 7 8 7 8 8 8 9 9 9 10 11 11 10 8 8 6 6 7 10 9 8 9 10 12 8 9 6 5 11 27 18 -6
7 10 12 11 12 11 11 9 8 8 9 7 8 9 9 9 8 7 8 9 9 7 9 12 13 11 8 8 8 8 8 7 8 8 10 11 8 7 5 -10 28 12 14
9 10 10 10 10 10 9 8 6 8 7 7 8 9 9 9 9 8 8 8 8 8 8 7 9 12 16 13 10 9 11 11 8 7 8 8 11 13 8 5 22 20 28
9 9 9 10 9 9 9 8 7 8 8 8 8 9 8 8 8 9 9 8 8 8 8 8 10 9 10 11 12 12 11 12 11 11 9 8 7 10 13 8 3 6 11
10 10 10 10 9 8 8 7 6 8 9 8 8 7 8 7 9 7 7 7 8 8 8 8 9 9 10 10 10 10 11 12 12 12 11 12 8 7 9 12 9 8 0
11 10 8 7 7 9 8 8 8 7 8 7 7 7 7 7 7 7 7 8 7 7 8 8 9 9 9 10 11 11 9 10 11 12 12 12 13 11 7 8 11 9 8
7 8 8 9 9 9 9 9 9 9 8 7 7 7 8 6 7 8 9 8 8 7 8 9 9 9 9 9 10 11 11 10 10 10 11 12 12 13 12 10 8 10 9
3 6 9 9 8 8 9 9 8 8 9 9 9 8 7 7 6 9 7 8 7 8 8 9 10 9 9 9 9 11 10 10 10 10 10 11 11 11 13 14 13 8 7
6 3 5 10 9 9 9 9 9 8 8 9 9 10 9 9 8 8 7 7 8 7 8 8 9 10 10 10 10 10 11 10 10 10 10 10 10 10 11 12 13 16 11
5 4 8 9 9 8 9 9 8 8 8 8 8 8 8 9 9 10 10 9 8 8 8 9 9 10 10 10 10 10 10 11 10 10 10 10 10 11 11 11 11 11 14
6 9 4 8 10 9 9 9 8 8 8 8 8 9 9 9 8 8 9 9 9 8 9 8 9 9 10 10 11 11 10 10 10 10 10 10 10 9 10 11 11 11 11
9 5 3 8 9 8 8 9 9 8 8 8 8 8 8 8 9 9 8 8 10 10 9 8 10 10 10 10 10 10 11 11 10 10 10 10 10 10 9 9 11 11 11
13 8 3 6 7 6 8 10 10 9 8 8 8 8 8 8 8 9 8 7 7 9 9 8 9 9 10 10 10 10 10 11 11 10 10 10 10 10 10 10 9 9 10
-4 9 3 5 6 6 7 10 11 9 8 8 8 8 8 9 9 9 8 8 8 8 9 9 9 9 9 9 10 10 11 11 11 10 10 9 9 10 9 10 11 10 9
12 9 5 5 5 5 8 11 11 9 9 8 8 8 8 9 9 9 9 8 8 8 8 8 8 9 9 9 9 10 10 10 11 10 9 9 8 9 10 10 9 9 9
-6 -3 8 5 4 5 9 11 10 9 9 8 8 9 9 9 9 9 9 9 9 8 8 8 8 8 9 9 10 9 10 10 10 10 10 10 9 8 8 8 9 9 9
6 1 9 6 5 4 10 11 10 10 9 8 9 9 9 10 10 9 9 9 9 8 8 8 9 9 9 10 10 10 10 10 11 10 10 10 9 8 8 9 9 10 11
17 -0 1 4 5 6 10 11 10 9 9 8 9 8 9 12 10 9 9 9 9 8 8 8 9 9 10 11 10 11 10 11 10 10 9 9 8 9 9 9 9 9 9
11 15 2 5 6 7 8 10 9 8 8 8 9 6 10 11 10 8 9 9 9 8 8 8 8 8 10 10 11 10 10 11 10 10 9 9 10 12 12 10 11 10 11
0 19 4 7 4 8 7 9 8 8 8 8 8 8 10 10 9 8 9 9 9 9 8 8 8 8 9 9 9 9 10 9 11 9 10 10 10 8 9 11 14 13 13
28 21 12 5 5 8 8 9 9 7 8 7 10 8 10 10 9 8 8 9 9 8 7 7 8 8 8 8 8 8 9 9 10 10 11 10 10 9 9 10 12 11 11
11 9 4 6 6 7 6 9 8 7 8 8 8 8 10 10 9 8 9 9 9 8 8 7 7 8 9 8 8 9 9 9 9 9 12 10 11 9 10 11 12 13 15
3 9 7 5 6 5 3 4 8 7 7 7 7 7 9 10 9 8 9 9 9 8 8 7 7 8 8 7 8 9 8 8 10 10 12 9 11 11 9 11 13 14 14
9 8 6 6 7 5 5 4 9 6 5 7 7 5 7 10 9 8 8 9 10 8 8 8 7 8 7 8 8 9 9 9 9 10 11 8 10 10 10 9 11 14 16
Height
3182 3180 3178 3176 3174 3172 3169 3166 3164 3162 3160 3157 3155 3153 3152 3151 3150 3150 3148 3147 3146 3146 3144 3143 3141 3140 3139 3139 3140 3141 3141 3142 3143 3144 3145 3147 3147 3147 3149 3151 3152 3156 3160
3181 3178 3176 3173 3171 3169 3166 3162 3161 3159 3157 3156 3154 3152 3150 3149 3148 3147 3145 3145 3144 3142 3141 3139 3137 3137 3134 3136 3137 3137 3137 3137 3137 3138 3140 3141 3141 3142 3144 3144 3147 3149 3153
3179 3177 3174 3172 3170 3168 3165 3162 3160 3158 3156 3154 3153 3151 3149 3146 3145 3144 3143 3141 3140 3138 3137 3136 3135 3134 3131 3132 3133 3133 3133 3132 3131 3132 3133 3135 3136 3137 3139 3141 3140 3140 3145
3178 3175 3173 3170 3168 3166 3163 3160 3158 3156 3154 3151 3150 3149 3147 3144 3142 3140 3139 3137 3135 3134 3133 3131 3131 3131 3130 3127 3127 3128 3127 3127 3127 3128 3128 3129 3130 3132 3134 3134 3135 3135 3139
3174 3172 3170 3168 3167 3164 3161 3158 3155 3154 3152 3150 3148 3147 3146 3144 3141 3139 3137 3134 3132 3130 3129 3127 3127 3127 3126 3124 3122 3121 3121 3121 3122 3122 3123 3125 3125 3126 3128 3130 3131 3132 3134
3172 3170 3168 3166 3165 3163 3160 3157 3154 3152 3151 3149 3146 3144 3143 3141 3139 3137 3135 3133 3130 3127 3125 3124 3123 3121 3120 3119 3118 3117 3116 3116 3115 3116 3117 3119 3121 3122 3123 3124 3126 3128 3129
3171 3169 3167 3165 3163 3161 3158 3156 3152 3151 3149 3147 3146 3143 3141 3139 3137 3135 3132 3129 3127 3124 3122 3121 3118 3117 3115 3114 3113 3112 3112 3111 3110 3110 3111 3112 3114 3116 3117 3118 3120 3123 3125
3171 3168 3166 3164 3162 3160 3158 3156 3152 3147 3146 3144 3143 3141 3139 3138 3135 3132 3130 3127 3123 3120 3118 3117 3115 3112 3111 3109 3109 3108 3106 3106 3106 3105 3105 3106 3107 3108 3111 3112 3114 3116 3119
3168 3166 3164 3162 3160 3157 3155 3153 3151 3149 3145 3142 3139 3138 3134 3133 3132 3130 3127 3124 3120 3117 3114 3113 3110 3108 3105 3104 3103 3104 3102 3101 3101 3100 3100 3100 3101 3101 3103 3105 3107 3110 3112
3166 3165 3163 3159 3156 3153 3151 3150 3148 3146 3144 3141 3139 3136 3133 3131 3128 3127 3124 3120 3117 3114 3111 3109 3107 3104 3101 3098 3097 3097 3097 3096 3096 3096 3095 3095 3095 3095 3096 3097 3100 3102 3105
3164 3163 3160 3157 3154 3151 3148 3146 3144 3142 3140 3138 3136 3134 3132 3129 3127 3125 3121 3117 3113 3109 3107 3104 3102 3100 3097 3094 3093 3092 3091 3091 3091 3091 3090 3089 3089 3090 3091 3091 3092 3094 3097
3162 3160 3157 3155 3152 3148 3145 3143 3141 3138 3136 3134 3132 3129 3127 3125 3123 3121 3119 3115 3111 3106 3103 3100 3098 3095 3093 3090 3089 3088 3087 3086 3085 3085 3085 3084 3084 3084 3085 3085 3085 3087 3089
3160 3157 3155 3152 3149 3146 3143 3140 3137 3134 3132 3129 3127 3124 3122 3119 3117 3115 3113 3111 3108 3104 3100 3095 3093 3091 3089 3086 3084 3083 3081 3080 3080 3079 3079 3079 3079 3078 3078 3079 3080 3080 3081
3157 3155 3153 3149 3145 3142 3139 3136 3133 3130 3128 3125 3122 3119 3117 3114 3111 3108 3106 3105 3104 3101 3097 3092 3089 3086 3083 3081 3079 3077 3076 3074 3073 3072 3072 3072 3072 3073 3072 3072 3073 3074 3074
3153 3151 3148 3145 3140 3137 3134 3131 3128 3125 3123 3120 3118 3115 3112 3109 3106 3103 3099 3097 3096 3095 3093 3088 3085 3081 3078 3076 3074 3072 3070 3069 3067 3065 3065 3065 3065 3064 3065 3066 3066 3066 3067
3148 3145 3142 3140 3136 3132 3129 3126 3123 3120 3117 3115 3113 3110 3107 3104 3101 3098 3094 3091 3089 3088 3085 3083 3079 3076 3072 3070 3068 3066 3064 3062 3060 3059 3057 3057 3057 3057 3057 3057 3057 3058 3058
3143 3140 3137 3135 3132 3128 3125 3122 3118 3114 3112 3109 3107 3105 3103 3100 3096 3093 3089 3085 3082 3080 3079 3076 3072 3069 3066 3063 3061 3058 3056 3055 3053 3051 3050 3049 3047 3047 3048 3048 3047 3048 3048
3136 3134 3132 3129 3126 3124 3120 3116 3113 3109 3107 3104 3102 3099 3097 3094 3091 3087 3084 3080 3077 3074 3072 3070 3068 3064 3060 3057 3055 3053 3050 3048 3046 3044 3042 3041 3038 3037 3037 3036 3036 3036 3036
3130 3128 3125 3124 3121 3117 3114 3110 3107 3105 3101 3098 3096 3093 3091 3088 3085 3081 3078 3075 3072 3068 3065 3062 3060 3057 3055 3051 3049 3046 3043 3041 3038 3035 3033 3032 3030 3028 3026 3024 3024 3024 3024
3122 3121 3119 3119 3116 3112 3108 3105 3101 3099 3096 3093 3090 3087 3085 3082 3079 3075 3072 3069 3066 3062 3059 3056 3053 3050 3047 3044 3041 3038 3037 3033 3031 3025 3023 3022 3019 3019 3018 3014 3013 3010 3009
3115 3113 3112 3112 3111 3107 3104 3101 3097 3093 3091 3087 3084 3081 3078 3075 3073 3069 3066 3063 3060 3056 3052 3050 3046 3042 3039 3036 3033 3030 3027 3025 3024 3018 3016 3014 3010 3009 3007 3004 3002 3000 2998
3107 3106 3103 3105 3102 3100 3097 3094 3091 3087 3084 3081 3077 3074 3071 3068 3066 3063 3060 3056 3053 3049 3045 3042 3039 3035 3031 3027 3023 3019 3015 3013 3014 3013 3006 3008 3000 2999 2996 2992 2990 2987 2986
3099 3098 3096 3096 3094 3092 3090 3086 3085 3081 3077 3074 3071 3068 3064 3061 3059 3055 3053 3049 3045 3041 3037 3033 3030 3026 3023 3017 3013 3009 3005 3001 2999 2999 2992 2991 2989 2985 2984 2983 2980 2976 2972
3091 3089 3088 3087 3086 3084 3081 3078 3075 3075 3071 3067 3064 3061 3058 3055 3052 3049 3046 3042 3038 3033 3028 3024 3021 3018 3013 3010 3004 3000 2995 2991 2989 2986 2980 2974 2977 2972 2969 2970 2967 2963 2960
3085 3084 3083 3081 3078 3075 3071 3068 3067 3066 3063 3059 3056 3053 3050 3047 3044 3041 3039 3035 3031 3026 3022 3016 3012 3008 3003 2998 2992 2988 2983 2978 2975 2975 2973 2962 2961 2955 2954 2955 2953 2949 2945
3079 3076 3072 3070 3067 3065 3061 3059 3058 3057 3054 3051 3048 3044 3041 3039 3035 3032 3030 3027 3024 3019 3015 3011 3006 3001 2996 2991 2986 2980 2973 2967 2962 2958 2960 2950 2948 2941 2932 2938 2939 2936 2931